Location: Advent Pentecost Church
(32.7757°N, 96.7408°W)
Time: 14:56:21
(UTC+00:00)

N. Korean satellite - Pass Details

Date: 29 October 2021
Orbit: 447 x 495 km, 97.3° (Epoch: 03 December)

Event Time Altitude Azimuth Distance (km) Brightness Sun altitude
Rises 11:04:34 0° 24° (NNE) 2,569 10.5 -21.1°
Reaches altitude 10° 11:06:52 10° 36° (NE) 1,677 9.7 -20.6°
Maximum altitude 11:10:02 28° 97° (E) 923 8.7 -19.9°
Drops below altitude 10° 11:13:07 10° 158° (SSE) 1,642 9.6 -19.3°
Sets 11:15:20 0° 170° (S) 2,506 10.4 -18.8°
